Temperature
17 16 16 15 14 14 13 13 12 12 12 11 11 11 11 10 10 10 9 9 9 9 9 9 8 8 8 8 7 7 6 6 5 5 4 4 4 3 3 2 2 2 1
17 16 16 15 14 13 13 13 12 12 11 11 11 11 10 10 10 10 9 9 9 9 9 8 8 8 8 7 7 6 6 5 5 4 4 3 3 2 2 2 1 1 1
16 16 15 15 14 14 13 12 12 11 11 11 11 10 10 10 10 10 9 9 9 9 8 8 8 8 7 7 7 6 6 5 4 3 3 3 2 2 1 1 1 0 -0
15 15 15 14 14 13 12 12 11 11 11 10 10 10 10 10 9 9 9 9 9 8 8 8 7 7 7 7 6 5 5 4 4 3 2 2 1 1 0 -0 -1 -1 -1
15 15 14 14 13 12 12 11 11 11 10 10 10 10 9 9 9 9 9 8 8 8 8 7 7 7 6 6 5 5 4 4 3 2 2 1 0 -0 -1 -1 -2 -2 -2
15 14 14 13 12 12 12 11 10 10 10 10 9 9 9 9 9 9 8 8 8 8 7 7 7 6 6 5 5 4 4 3 2 1 1 0 -0 -1 -2 -2 -3 -3 -4
14 14 13 12 12 11 11 11 10 10 10 9 9 9 9 9 8 8 8 8 7 7 7 7 6 6 5 4 4 3 3 2 2 1 -0 -0 -1 -2 -2 -3 -3 -4 -4
14 13 13 12 12 11 11 10 10 10 9 9 9 8 8 8 8 8 7 7 7 6 6 6 5 5 4 4 3 3 2 2 1 0 -1 -1 -2 -2 -3 -4 -4 -5 -5
13 13 12 12 11 11 10 10 10 9 9 8 8 8 8 8 8 7 7 7 6 6 6 5 5 4 4 3 2 2 1 1 -0 -1 -1 -2 -2 -3 -4 -4 -5 -5 -6
14 13 12 12 11 11 10 10 9 9 8 8 8 7 7 7 7 7 6 6 5 5 5 4 4 3 3 2 2 1 0 -0 -1 -2 -2 -2 -3 -4 -4 -5 -5 -6 -7
13 13 12 11 10 10 9 9 9 8 8 7 7 7 7 7 6 6 6 5 5 4 4 3 3 3 2 1 1 -0 -1 -1 -2 -2 -3 -3 -4 -5 -5 -5 -6 -7 -7
13 12 11 10 10 9 9 8 8 8 7 7 7 6 6 6 6 5 5 5 4 4 3 3 2 2 1 0 -0 -1 -2 -2 -3 -3 -4 -5 -5 -5 -6 -6 -6 -7 -7
12 11 10 10 9 9 8 8 7 7 7 7 6 6 6 5 5 5 4 4 3 3 2 2 1 1 0 -1 -1 -2 -2 -3 -4 -4 -5 -5 -6 -6 -7 -7 -7 -7 -7
11 10 10 9 8 8 7 7 7 6 6 6 6 5 5 5 4 4 3 3 3 2 2 1 0 -0 -1 -2 -2 -3 -3 -4 -5 -5 -6 -6 -6 -7 -7 -8 -8 -8 -8
11 10 9 8 8 7 7 6 6 6 6 6 5 5 5 4 4 3 3 2 2 1 1 0 -1 -1 -2 -3 -3 -4 -4 -5 -5 -6 -6 -7 -7 -8 -8 -8 -9 -9 -9
10 9 9 8 7 7 6 6 5 5 5 4 4 4 4 3 3 2 2 1 1 0 -0 -1 -2 -2 -3 -3 -4 -5 -5 -6 -6 -7 -7 -8 -8 -8 -9 -9 -9 -10 -10
10 9 8 8 7 6 6 6 5 4 4 4 3 3 3 3 2 2 1 1 -0 -1 -1 -2 -3 -3 -4 -4 -5 -5 -6 -7 -7 -8 -8 -8 -9 -9 -9 -10 -10 -10 -10
9 9 8 7 7 6 6 5 5 4 4 3 2 2 2 2 1 1 0 -0 -1 -1 -2 -3 -3 -4 -4 -5 -6 -6 -7 -7 -8 -8 -9 -9 -9 -10 -10 -10 -10 -11 -11
9 8 7 7 6 6 5 5 4 4 3 3 2 1 1 1 0 -0 -1 -1 -2 -2 -3 -3 -4 -5 -5 -6 -6 -7 -7 -8 -8 -9 -9 -9 -10 -10 -10 -11 -11 -11 -11
8 7 7 6 5 5 4 4 3 3 2 2 1 1 0 -0 -1 -1 -2 -2 -3 -3 -4 -4 -5 -5 -6 -6 -7 -7 -8 -8 -9 -9 -9 -10 -10 -10 -11 -11 -11 -11 -11
7 6 6 5 5 4 4 3 3 2 2 1 1 0 -0 -1 -1 -2 -2 -3 -3 -4 -4 -5 -5 -6 -6 -7 -7 -8 -8 -9 -9 -10 -10 -10 -10 -11 -11 -11 -12 -12 -12
6 6 5 4 4 3 3 2 2 1 1 1 -0 -1 -1 -2 -2 -3 -3 -3 -4 -5 -5 -5 -6 -6 -7 -7 -8 -8 -9 -9 -9 -10 -10 -10 -11 -11 -11 -11 -12 -12 -12
6 5 4 4 3 3 2 2 1 1 0 -0 -1 -1 -2 -2 -3 -3 -4 -4 -5 -5 -5 -6 -6 -7 -7 -7 -8 -8 -9 -9 -9 -10 -10 -11 -11 -11 -11 -12 -12 -12 -12
5 4 4 3 2 2 1 1 0 -0 -0 -1 -2 -2 -3 -3 -3 -4 -4 -5 -5 -6 -6 -6 -7 -7 -7 -8 -8 -8 -9 -9 -10 -10 -10 -11 -11 -11 -12 -12 -12 -12 -12
4 3 3 2 2 1 1 0 -0 -1 -1 -2 -2 -3 -3 -4 -4 -4 -5 -5 -6 -6 -6 -7 -7 -7 -8 -8 -8 -9 -9 -9 -10 -10 -11 -11 -11 -11 -12 -12 -12 -12 -12
3 2 2 2 1 1 0 -0 -1 -2 -2 -3 -3 -3 -4 -4 -5 -5 -5 -6 -6 -6 -7 -7 -7 -8 -8 -8 -8 -9 -9 -9 -10 -10 -11 -11 -11 -12 -12 -12 -12 -12 -12
Wind_Speed
18 18 18 18 18 18 17 17 17 16 16 16 16 16 16 15 15 13 13 12 12 11 10 10 10 8 6 6 6 6 6 6 7 6 5 5 6 7 7 9 11 12 12
16 17 17 17 17 17 17 16 16 16 15 15 15 15 15 14 14 14 13 13 13 12 11 11 10 8 9 7 6 7 6 7 6 7 6 5 7 7 8 9 10 11 12
15 16 16 16 17 17 16 15 15 15 14 14 14 14 14 14 14 13 13 12 12 12 11 11 10 10 10 7 7 7 5 5 5 6 6 5 6 6 8 9 10 10 12
14 15 15 16 16 16 15 14 14 14 14 14 13 13 13 12 12 11 11 11 11 10 9 9 9 10 10 8 7 7 5 5 5 5 6 6 6 6 7 8 9 9 9
14 14 14 14 14 13 13 13 13 13 12 12 12 11 11 10 10 11 10 10 10 9 8 8 8 8 8 7 6 6 6 5 5 5 6 6 7 6 7 7 9 10 11
14 14 13 13 13 13 13 13 13 12 12 12 11 11 11 8 11 14 11 10 9 9 9 8 7 7 8 9 8 8 7 6 6 5 6 7 9 8 8 8 9 10 10
14 13 13 13 13 13 12 13 12 12 12 11 11 11 10 10 13 15 13 10 9 8 8 7 6 6 8 6 7 8 8 7 6 6 7 9 9 8 9 10 10 11 11
14 13 13 13 13 13 13 13 12 11 11 10 10 10 9 10 14 14 13 9 7 7 7 7 7 6 6 6 6 5 6 6 6 7 7 8 8 8 8 9 11 11 11
14 14 14 14 14 14 13 13 11 11 10 9 9 10 10 10 13 14 12 8 6 6 6 5 6 6 7 7 5 5 5 5 5 8 9 9 9 9 9 7 7 8 10
15 14 14 14 14 14 13 13 11 10 10 9 9 8 9 9 12 13 12 7 6 5 5 4 5 5 6 7 5 5 5 5 4 4 6 6 7 7 8 7 6 8 9
14 14 14 14 14 14 13 12 12 11 11 10 10 8 8 9 11 12 11 6 6 6 5 4 3 5 5 6 5 3 4 4 3 4 4 5 5 5 5 6 5 6 8
14 14 14 14 12 12 13 12 12 12 12 11 10 9 6 7 8 10 10 7 6 5 4 4 3 5 5 4 3 2 3 3 2 3 4 4 5 5 6 6 7 7 8
16 15 14 14 13 13 14 14 12 11 10 9 9 8 7 6 7 9 10 9 7 4 4 5 5 5 4 3 1 1 1 2 2 3 4 5 5 6 6 6 6 6 8
17 16 14 14 13 12 10 10 10 10 10 9 9 8 7 6 6 6 6 6 7 6 5 6 6 5 3 1 0 1 1 2 3 4 5 5 5 5 5 5 6 6 7
17 15 14 13 13 12 10 8 8 7 8 10 9 9 9 7 6 8 7 6 5 5 5 3 2 2 1 0 0 1 2 2 3 4 4 5 5 5 5 5 5 6 6
17 15 13 12 12 12 12 11 13 11 13 12 11 10 7 9 12 11 10 10 9 9 5 3 2 2 1 1 1 2 2 3 3 4 4 5 5 6 6 6 6 6 7
18 16 13 13 13 13 12 13 12 12 15 14 14 13 12 14 13 12 11 10 9 8 3 3 2 1 1 1 2 2 3 3 3 4 4 5 5 5 6 6 6 6 7
17 15 14 13 13 12 12 12 11 12 11 9 10 13 14 13 13 12 11 9 6 4 2 2 2 1 1 1 2 2 3 3 3 4 4 5 5 5 6 6 6 7 7
16 13 13 12 12 12 12 11 11 11 11 10 9 9 11 12 11 10 8 4 4 3 2 2 1 1 1 2 2 3 3 3 4 4 4 5 5 5 6 6 6 8 7
14 17 15 13 12 12 11 11 11 10 10 9 8 8 7 7 6 5 4 3 3 2 2 2 1 1 2 2 2 3 3 3 4 4 4 4 4 5 5 6 6 7 6
14 15 17 14 12 11 11 11 10 10 9 8 7 7 8 6 5 4 3 3 2 2 2 1 1 2 2 2 3 3 4 4 4 4 4 4 4 5 5 5 6 6 6
14 13 12 12 11 11 11 10 10 9 10 9 8 7 8 5 4 3 3 2 1 1 1 1 2 2 2 3 3 3 4 4 4 4 4 4 4 5 5 5 5 5 6
14 14 13 12 11 14 12 10 9 9 9 8 7 6 5 4 4 3 2 2 1 1 1 1 2 2 2 3 4 4 4 4 4 5 5 5 5 5 5 5 6 6 6
14 15 14 13 12 11 11 10 9 9 8 8 7 6 5 4 3 3 2 1 1 1 1 2 3 3 4 4 4 5 5 6 6 6 6 6 6 6 5 5 5 6 6
14 14 13 12 11 11 10 10 9 9 8 7 6 5 4 3 3 2 1 1 1 2 2 3 3 4 5 6 6 6 7 8 9 8 7 6 6 6 6 6 6 6 5
13 13 12 11 11 10 10 9 9 8 7 6 5 4 4 3 2 2 2 1 1 2 2 3 4 5 6 7 7 8 9 10 10 10 8 6 6 6 6 5 6 6 5
Wind_Direction
191 192 194 196 197 197 197 199 198 196 192 192 193 194 195 195 193 194 196 192 196 196 194 199 202 195 195 198 199 206 217 225 246 263 259 259 261 265 269 273 280 283 284
186 188 190 190 190 192 195 196 194 193 191 191 191 191 192 192 192 193 194 193 196 196 194 195 198 192 200 199 202 210 217 223 240 261 267 264 267 274 279 282 284 284 285
181 182 183 185 187 190 191 190 188 187 186 187 187 188 189 189 191 192 192 193 197 197 193 194 196 194 202 202 206 213 217 223 236 254 269 273 273 275 284 285 285 285 287
176 178 180 182 185 186 184 183 183 182 182 182 184 185 185 185 187 187 187 189 192 191 191 194 194 198 204 202 204 211 211 217 230 247 264 273 276 282 285 289 292 292 293
172 175 178 178 177 177 176 176 176 177 177 177 177 177 178 178 182 179 179 181 183 183 185 191 194 198 204 201 201 205 204 215 228 246 262 274 278 284 285 291 293 298 296
170 172 170 168 168 169 170 169 169 169 169 168 171 171 173 175 173 174 175 176 180 183 185 188 190 194 203 205 208 209 207 216 229 245 262 270 280 287 290 292 294 298 300
167 166 165 164 164 164 162 162 163 163 162 165 166 167 171 170 167 172 173 173 178 184 184 184 186 193 198 202 209 215 221 228 237 253 263 273 286 292 294 291 290 291 292
162 161 161 161 159 158 159 160 159 158 160 161 162 164 163 163 166 167 167 171 171 176 181 185 188 188 191 194 201 215 230 235 243 256 269 280 288 294 292 290 293 293 293
162 162 162 160 157 157 158 158 155 153 153 153 156 158 159 158 161 162 162 163 162 167 172 177 185 190 184 191 201 218 238 251 250 261 278 287 292 293 296 295 294 295 297
165 161 159 158 156 156 155 151 147 146 144 141 141 150 152 152 154 158 161 159 160 160 161 170 182 191 183 191 206 221 242 262 267 270 275 281 287 289 290 287 290 293 300
156 152 152 153 152 148 144 142 140 137 135 135 132 134 139 141 149 156 160 161 161 160 163 170 174 178 183 194 214 232 258 278 271 271 279 286 291 292 293 292 289 286 290
148 147 146 145 141 141 138 137 138 138 136 135 133 128 127 134 141 151 155 149 151 158 165 168 161 166 176 187 210 253 275 279 278 282 286 289 293 295 297 298 294 285 278
145 143 141 138 137 140 140 139 140 141 140 141 140 137 132 130 131 138 146 143 140 143 140 134 135 145 159 175 176 259 273 282 289 289 290 294 297 299 301 302 301 294 287
144 141 140 137 134 133 133 138 141 145 145 144 145 143 138 136 136 141 144 138 131 125 122 124 126 122 123 108 127 262 298 307 303 295 298 302 305 306 304 307 306 308 304
141 139 138 135 132 128 120 119 130 133 145 148 150 148 147 147 146 143 144 145 143 136 130 126 136 149 167 194 281 302 307 309 303 305 303 304 307 308 309 311 307 306 305
142 141 139 136 132 128 121 102 79 96 99 101 112 124 119 123 134 135 131 128 130 136 133 145 157 175 204 243 272 291 300 304 305 303 301 303 307 308 308 309 308 306 306
145 143 140 139 137 135 132 127 117 95 91 99 109 113 119 128 130 131 128 126 130 136 137 153 168 188 218 250 273 288 296 303 303 298 298 301 305 306 307 309 311 310 309
139 137 138 139 139 137 135 132 131 130 124 108 104 111 117 122 126 129 129 127 130 132 142 158 174 195 229 256 273 284 292 297 296 296 297 299 300 304 307 310 312 315 313
137 138 135 134 132 132 130 129 128 128 127 126 123 116 115 117 117 121 128 134 143 151 155 165 183 213 243 261 273 281 286 288 295 297 298 300 300 301 303 307 309 312 309
131 129 130 132 131 130 130 130 130 131 131 134 135 135 135 132 133 131 131 137 146 157 167 183 206 232 249 260 270 277 282 285 289 289 295 298 297 296 299 302 306 308 307
130 130 127 127 130 131 131 131 132 133 134 133 132 138 145 143 141 142 147 151 159 171 189 210 229 243 253 262 267 272 276 281 285 290 294 295 295 294 296 299 303 303 306
131 133 132 129 129 129 128 129 129 129 131 130 130 132 136 134 138 144 148 153 162 187 215 233 248 257 261 264 267 272 274 279 284 288 292 294 293 292 293 295 300 305 307
129 128 126 125 126 127 125 125 127 129 130 132 135 138 141 139 141 145 147 153 168 202 230 243 256 265 272 269 266 267 270 277 282 287 290 291 291 291 291 293 296 301 306
128 128 128 128 128 129 128 128 128 129 131 134 137 140 141 141 143 144 151 161 192 229 245 253 259 265 272 277 274 270 270 276 281 276 272 274 282 286 287 288 291 297 300
127 127 129 130 131 130 129 129 130 132 134 136 138 139 140 142 146 154 167 188 220 243 261 268 264 266 270 274 276 278 279 279 279 276 267 263 268 272 276 281 285 292 294
126 127 128 129 129 130 132 134 135 136 137 138 139 141 144 149 158 171 187 206 233 254 266 269 270 276 278 277 276 279 282 281 280 276 271 266 263 266 270 273 278 280 285
Height
1414 1419 1424 1429 1434 1439 1444 1449 1454 1459 1463 1468 1472 1476 1480 1484 1488 1492 1495 1498 1501 1503 1504 1506 1507 1508 1509 1510 1510 1510 1510 1509 1508 1506 1505 1504 1502 1499 1497 1494 1492 1489 1486
1409 1413 1418 1423 1428 1433 1438 1443 1449 1454 1458 1463 1467 1471 1475 1479 1483 1487 1490 1493 1495 1497 1499 1501 1502 1503 1504 1505 1505 1505 1505 1504 1503 1501 1500 1498 1496 1494 1492 1489 1486 1483 1480
1404 1408 1413 1418 1423 1428 1433 1438 1443 1449 1453 1458 1462 1466 1471 1474 1478 1482 1485 1488 1490 1492 1494 1496 1497 1498 1499 1500 1500 1500 1499 1499 1498 1496 1495 1493 1491 1489 1486 1483 1480 1477 1474
1399 1404 1408 1413 1418 1423 1429 1434 1439 1444 1449 1453 1458 1462 1466 1470 1473 1477 1480 1483 1485 1488 1489 1491 1492 1493 1494 1494 1495 1494 1494 1494 1493 1491 1489 1488 1486 1483 1480 1477 1474 1471 1468
1395 1399 1404 1409 1415 1420 1425 1430 1435 1440 1445 1450 1454 1458 1462 1465 1469 1472 1475 1478 1480 1483 1484 1486 1487 1488 1489 1489 1490 1489 1489 1488 1487 1486 1484 1482 1480 1478 1475 1472 1468 1465 1461
1391 1396 1401 1406 1411 1416 1421 1426 1431 1436 1441 1446 1450 1454 1458 1461 1465 1468 1471 1474 1476 1478 1479 1481 1482 1483 1484 1484 1485 1484 1484 1484 1482 1481 1479 1478 1475 1473 1470 1467 1464 1460 1456
1388 1393 1398 1403 1408 1413 1418 1423 1428 1432 1437 1442 1446 1450 1454 1457 1461 1464 1467 1470 1472 1473 1475 1476 1477 1478 1479 1479 1479 1479 1479 1478 1478 1477 1475 1473 1470 1468 1465 1462 1459 1455 1451
1385 1390 1395 1400 1405 1410 1415 1420 1425 1430 1434 1439 1443 1447 1450 1454 1457 1461 1463 1466 1467 1469 1471 1472 1473 1473 1474 1474 1474 1474 1474 1473 1472 1471 1469 1467 1465 1462 1460 1457 1454 1450 1446
1383 1388 1392 1397 1402 1407 1412 1417 1422 1427 1431 1436 1440 1444 1447 1451 1454 1457 1460 1462 1463 1465 1466 1467 1468 1469 1469 1470 1470 1469 1469 1468 1467 1465 1464 1461 1459 1457 1454 1451 1448 1445 1440
1381 1386 1391 1396 1401 1406 1410 1415 1420 1425 1429 1433 1438 1441 1445 1448 1451 1454 1457 1458 1460 1461 1462 1463 1464 1465 1465 1465 1465 1465 1464 1463 1462 1460 1458 1456 1454 1451 1449 1447 1444 1440 1436
1379 1384 1389 1394 1399 1404 1409 1414 1418 1423 1427 1431 1435 1439 1442 1446 1448 1451 1453 1455 1457 1458 1459 1460 1460 1461 1461 1461 1461 1460 1460 1458 1456 1454 1452 1450 1448 1446 1444 1441 1439 1436 1433
1377 1382 1387 1392 1397 1403 1407 1412 1417 1421 1425 1429 1433 1437 1440 1443 1446 1448 1451 1453 1454 1455 1456 1457 1457 1458 1458 1457 1457 1456 1455 1454 1452 1450 1448 1445 1443 1441 1439 1436 1434 1431 1428
1375 1380 1386 1391 1396 1401 1406 1410 1415 1419 1423 1427 1431 1434 1438 1441 1443 1446 1448 1450 1451 1452 1453 1454 1454 1454 1454 1453 1453 1452 1450 1449 1447 1445 1443 1441 1439 1437 1434 1431 1429 1426 1423
1372 1378 1384 1389 1395 1400 1405 1410 1414 1418 1421 1425 1429 1432 1436 1438 1441 1443 1445 1447 1448 1449 1450 1450 1450 1450 1450 1450 1449 1448 1446 1445 1443 1442 1439 1437 1435 1432 1430 1427 1425 1422 1419
1371 1376 1382 1388 1393 1398 1403 1409 1413 1417 1421 1425 1428 1431 1434 1436 1439 1441 1443 1444 1445 1446 1447 1447 1447 1447 1447 1446 1445 1444 1442 1441 1439 1438 1436 1433 1431 1429 1426 1424 1421 1419 1416
1368 1375 1380 1386 1391 1396 1401 1407 1412 1417 1421 1424 1428 1430 1433 1436 1437 1439 1440 1442 1443 1443 1444 1444 1444 1444 1443 1442 1441 1440 1439 1437 1436 1434 1432 1430 1428 1426 1423 1421 1419 1416 1413
1366 1372 1378 1384 1390 1395 1400 1404 1409 1415 1419 1423 1426 1429 1431 1433 1435 1436 1438 1439 1440 1440 1441 1441 1441 1440 1440 1439 1438 1437 1435 1434 1432 1430 1429 1427 1425 1422 1420 1418 1416 1414 1411
1366 1372 1378 1383 1389 1394 1399 1404 1408 1412 1416 1420 1424 1427 1429 1431 1433 1434 1435 1436 1437 1437 1438 1438 1438 1437 1437 1436 1434 1433 1432 1430 1429 1427 1425 1423 1422 1420 1418 1416 1414 1411 1409
1365 1371 1378 1383 1389 1394 1399 1403 1408 1412 1416 1419 1422 1425 1428 1429 1431 1432 1433 1434 1434 1435 1435 1435 1435 1434 1433 1432 1431 1430 1428 1427 1425 1424 1422 1420 1419 1417 1415 1413 1411 1409 1407
1365 1371 1377 1383 1388 1393 1398 1403 1407 1411 1415 1418 1421 1423 1426 1427 1429 1430 1431 1431 1432 1432 1432 1432 1432 1431 1430 1429 1428 1426 1425 1423 1422 1421 1419 1417 1416 1414 1413 1411 1409 1407 1405
1364 1371 1378 1383 1388 1393 1397 1402 1406 1410 1414 1417 1419 1422 1424 1425 1427 1427 1428 1429 1429 1429 1429 1429 1428 1428 1427 1425 1424 1423 1422 1420 1419 1418 1416 1415 1413 1412 1410 1408 1406 1404 1402
1364 1370 1377 1382 1388 1393 1397 1402 1405 1409 1412 1415 1418 1420 1422 1423 1425 1425 1426 1426 1427 1427 1426 1426 1425 1424 1423 1422 1421 1420 1418 1417 1416 1415 1413 1412 1410 1409 1407 1406 1404 1402 1401
1365 1371 1377 1382 1388 1392 1397 1401 1404 1408 1411 1414 1416 1418 1420 1421 1422 1423 1423 1424 1424 1424 1423 1423 1422 1421 1420 1419 1417 1416 1415 1414 1413 1412 1410 1409 1408 1406 1405 1404 1402 1400 1399
1366 1371 1377 1382 1387 1392 1396 1400 1403 1407 1410 1412 1414 1416 1417 1419 1420 1420 1421 1421 1421 1421 1420 1419 1419 1418 1417 1416 1414 1413 1412 1411 1410 1408 1407 1406 1405 1404 1403 1401 1400 1399 1397
1367 1372 1377 1382 1386 1391 1395 1398 1402 1405 1408 1410 1412 1414 1415 1416 1417 1418 1418 1418 1418 1418 1417 1416 1416 1415 1413 1412 1411 1410 1409 1407 1406 1405 1404 1403 1402 1401 1400 1399 1398 1397 1395
1368 1373 1378 1382 1386 1390 1394 1397 1400 1403 1406 1408 1410 1412 1413 1414 1415 1415 1415 1415 1415 1415 1414 1413 1412 1411 1410 1409 1408 1406 1405 1404 1403 1402 1401 1400 1399 1398 1398 1396 1395 1394 1393